Theta_e
348 354 353 352 350 354 355 353 352 350 348 346 347 347 345 340 336 336 334 334 335 333 334 340 342 341 342 342 341 342 342 341 341 341 338 334 334 336
350 352 352 353 352 352 352 349 352 351 350 346 345 340 331 334 335 335 335 337 336 336 334 335 335 336 340 340 340 341 342 342 342 341 341 340 339 336
350 350 351 355 353 352 351 349 350 348 346 343 339 333 331 333 333 332 334 336 337 337 336 336 337 335 334 334 335 337 339 340 342 342 343 341 340 340
351 349 349 354 353 352 351 349 347 343 342 340 333 333 331 331 329 331 332 337 341 339 337 336 335 336 333 328 327 332 338 339 340 340 341 343 343 342
351 351 348 351 350 349 350 349 349 345 336 333 329 329 328 329 329 331 332 332 332 331 331 332 333 334 330 327 327 323 321 337 339 339 340 341 342 341
353 353 348 348 348 351 350 350 349 347 334 328 330 330 328 331 332 331 331 332 332 332 330 329 330 329 327 326 322 321 320 320 327 330 331 338 340 340
353 354 351 346 345 352 354 350 348 349 338 328 329 328 329 332 332 333 333 333 333 333 331 328 326 324 324 323 327 327 327 327 327 325 327 328 328 332
350 349 347 345 345 352 351 349 348 349 335 327 328 331 333 332 333 334 334 334 334 330 325 323 323 321 322 323 324 326 327 326 327 327 326 327 327 328
345 344 346 346 347 351 349 347 349 345 339 336 332 336 335 333 335 335 335 331 325 321 322 323 323 323 324 324 325 325 327 326 326 326 325 326 326 328
346 345 348 350 352 352 350 347 346 343 341 339 338 338 336 336 336 333 326 323 325 325 325 325 324 324 324 324 324 324 323 323 323 324 325 325 325 326
351 352 351 353 352 351 351 349 344 342 342 340 339 337 336 333 328 323 324 325 324 323 323 322 322 322 322 322 321 321 321 321 321 320 320 321 323 324
355 354 354 353 352 352 349 344 342 341 340 339 337 336 329 323 323 324 323 320 318 318 317 319 319 318 317 317 318 318 318 319 320 318 319 321 323 322
355 355 353 351 350 343 334 334 335 340 340 336 326 323 322 321 318 316 316 314 313 314 317 317 318 318 317 318 318 319 318 317 318 318 319 321 322 323
354 354 353 351 346 336 334 332 339 339 335 325 321 319 316 316 315 313 313 314 313 312 311 313 316 317 316 315 318 319 319 319 319 320 320 320 321 322
358 354 351 348 341 335 335 340 336 328 324 321 318 315 315 315 315 315 315 315 315 314 312 310 311 313 317 317 317 318 318 319 319 320 320 320 321 321
356 345 340 338 338 341 338 329 325 324 320 318 316 315 314 314 314 314 314 314 315 315 313 310 309 310 313 315 317 318 316 315 318 318 319 319 320 320
345 341 335 338 338 332 324 324 323 321 319 317 315 314 315 314 313 312 314 314 314 315 315 311 310 309 309 311 315 316 315 315 314 314 315 318 319 319
339 337 337 333 326 324 324 323 321 319 317 314 314 313 313 313 312 311 314 313 314 314 315 312 312 310 309 309 310 312 312 314 316 316 315 316 317 317
336 331 326 324 324 324 323 321 320 317 315 314 313 312 310 310 309 311 313 313 313 313 314 313 313 312 311 309 309 310 311 312 314 315 316 316 317 317
325 325 325 324 324 323 321 317 316 315 314 313 312 311 310 309 308 313 312 312 312 313 313 314 313 313 313 312 310 308 310 312 313 314 314 316 317 318
325 325 324 323 322 319 317 316 316 314 313 312 311 310 309 306 312 312 312 311 312 311 311 312 312 313 314 314 311 308 308 311 313 315 315 316 316 316
322 321 321 319 318 317 316 315 313 312 311 310 310 309 308 311 312 311 311 311 311 311 311 310 311 311 313 314 313 309 308 309 312 316 318 316 316 316
320 319 319 317 316 316 314 312 311 311 310 310 308 307 309 310 310 310 310 310 310 310 310 310 310 310 310 313 313 311 308 308 308 312 316 316 319 319
Wind_Speed
12 10 9 8 10 10 12 12 10 8 8 4 1 3 7 9 6 3 3 2 4 6 5 8 9 10 11 12 14 16 17 19 24 27 36 40 38 36
13 12 12 9 10 13 15 15 13 12 11 7 7 7 8 5 5 5 5 5 6 8 6 5 7 10 12 14 15 18 21 22 22 23 28 30 36 44
17 16 14 12 12 13 14 15 15 12 14 11 8 7 6 7 8 8 8 10 10 11 11 12 11 10 12 13 15 17 21 23 25 25 27 30 31 32
17 17 17 16 14 15 15 14 13 14 15 13 11 9 7 8 9 8 7 10 13 14 15 18 19 19 21 22 23 23 20 23 25 27 30 30 32 33
20 20 20 19 18 18 16 15 15 14 15 14 10 9 10 11 11 11 11 11 13 14 17 19 23 24 25 29 32 30 28 26 25 24 27 32 33 33
23 23 24 24 21 21 20 16 16 14 14 14 13 13 12 13 15 16 17 18 19 20 23 23 25 26 27 27 29 27 24 25 31 29 27 24 29 31
28 29 29 27 25 23 22 20 18 18 17 18 17 16 15 16 17 22 26 26 27 26 26 25 29 29 29 22 16 16 15 16 18 25 31 32 32 34
33 33 32 31 27 24 26 20 20 20 19 19 19 18 17 18 22 25 29 31 35 33 31 30 25 25 18 16 18 14 14 13 14 16 16 21 26 32
35 34 33 32 29 28 27 23 18 17 18 19 21 20 18 21 25 29 29 31 30 26 24 26 20 22 20 20 19 19 20 21 23 22 21 20 20 23
36 35 34 32 29 28 28 25 20 16 18 21 21 20 20 24 26 27 28 24 19 17 18 25 23 24 25 23 22 21 25 26 27 29 30 28 26 24
34 33 34 33 29 27 27 27 17 16 17 19 20 21 23 23 23 22 17 21 26 27 26 29 28 31 33 33 28 24 25 26 25 28 30 32 33 33
38 40 36 34 30 32 25 24 6 11 21 25 21 23 22 18 16 17 22 22 20 22 15 21 26 28 34 29 17 24 28 24 25 27 26 26 28 34
43 43 38 38 27 9 22 26 22 25 23 18 15 14 15 16 10 4 6 10 13 15 16 21 25 23 22 31 34 26 23 22 22 22 23 24 25 27
42 43 41 31 20 10 17 17 23 14 12 13 15 12 8 4 4 5 7 11 15 18 21 19 22 22 24 29 33 30 26 22 22 22 22 22 22 24
37 30 25 19 19 14 11 15 9 9 9 11 8 4 6 4 1 3 6 6 10 16 21 22 23 22 22 26 30 31 30 28 21 15 17 21 23 22
21 17 14 12 6 8 11 9 10 5 4 3 3 5 5 5 5 7 8 9 10 10 16 22 25 27 26 23 23 26 22 19 22 19 21 25 26 26
24 17 12 10 10 11 10 9 5 3 5 3 5 6 8 7 7 10 11 12 12 13 15 19 24 26 28 25 21 17 18 19 18 21 21 25 26 26
14 11 13 15 10 10 10 6 7 8 9 8 5 5 8 8 10 10 12 14 13 13 13 19 25 31 33 33 26 26 25 25 22 20 20 24 26 22
10 13 13 10 11 11 8 6 9 11 10 8 6 5 7 10 12 8 11 14 12 13 11 14 19 25 31 36 34 34 31 27 28 26 23 23 28 27
10 10 11 12 10 5 7 10 9 7 8 7 7 7 11 15 11 9 7 10 11 12 11 11 15 18 23 28 33 38 32 29 26 28 29 28 28 27
11 11 8 6 7 9 10 8 5 6 6 7 7 10 14 12 9 7 6 9 11 11 14 13 14 17 19 24 30 38 37 33 26 23 22 26 29 30
7 6 6 6 7 7 4 4 5 4 7 7 9 11 9 7 8 7 8 10 12 13 13 15 16 19 19 22 26 33 38 38 32 19 12 13 19 23
7 4 6 8 9 6 4 2 3 6 9 9 8 5 6 7 5 6 10 14 14 14 14 15 16 16 19 19 21 28 35 38 38 33 19 16 14 17
Wind_Direction
265 271 274 283 285 281 289 304 296 300 312 308 296 298 303 302 303 287 3 22 341 344 276 268 275 277 274 278 280 276 270 262 255 249 244 244 243 242
263 265 269 281 287 283 284 283 279 279 273 277 284 295 307 292 301 288 295 296 301 313 313 312 304 294 280 271 267 268 266 262 260 256 250 250 247 244
256 262 267 271 280 278 278 274 268 264 275 278 260 264 271 281 294 299 297 292 296 299 295 293 300 296 295 293 290 282 271 267 256 252 251 250 249 248
249 259 262 266 276 278 280 271 273 273 274 271 268 258 265 278 293 300 287 273 273 279 278 285 283 277 286 293 289 283 281 265 262 260 255 247 243 247
251 257 263 261 257 265 269 260 255 261 269 268 260 249 264 278 288 292 292 293 294 297 295 286 280 278 281 288 288 288 269 261 263 270 267 253 250 247
254 260 263 260 255 257 253 249 244 253 260 256 258 264 274 284 288 294 300 302 300 300 299 286 276 282 283 287 293 285 281 265 258 263 265 262 253 253
261 263 266 263 257 250 248 243 238 240 244 239 243 253 264 277 293 302 304 304 303 301 298 296 292 293 292 287 282 280 277 272 263 255 260 262 257 256
264 267 266 261 255 250 254 241 243 240 240 240 245 254 266 278 288 294 300 305 307 309 304 297 296 291 289 279 280 274 269 282 264 259 257 258 259 258
261 263 265 260 254 250 238 245 243 251 254 262 261 266 271 285 291 299 298 297 300 305 298 297 305 294 291 283 271 271 272 275 270 265 263 266 269 264
261 261 261 261 249 250 239 235 236 241 259 264 266 270 280 287 293 298 303 306 304 304 298 297 305 296 291 283 277 277 277 277 275 272 268 262 264 267
259 261 260 261 260 253 245 239 223 240 263 267 273 278 285 286 294 297 293 298 303 302 298 297 300 298 293 289 285 280 275 274 277 279 276 272 268 265
261 256 253 254 251 259 225 212 221 284 279 267 270 282 283 288 289 290 300 307 313 316 318 294 290 296 303 302 298 296 290 285 276 278 275 268 268 261
259 258 255 253 249 184 322 304 261 253 265 271 271 273 282 292 303 357 34 29 15 351 327 304 308 306 293 300 304 311 305 296 288 284 271 266 264 264
264 263 260 256 235 281 280 216 225 236 267 263 270 279 271 196 115 73 59 34 28 16 9 352 322 310 301 300 305 312 309 303 297 289 273 269 264 260
261 268 252 234 220 274 218 206 212 227 238 248 249 221 201 201 209 329 360 7 9 13 7 2 357 342 317 300 301 307 313 312 308 293 279 277 277 276
229 192 197 232 234 189 187 167 191 210 228 236 218 220 205 224 276 305 316 321 325 357 6 2 0 354 341 322 301 301 313 305 300 296 289 281 277 276
183 196 204 204 187 172 162 170 169 183 202 240 215 232 232 244 284 298 307 317 320 328 349 9 9 4 360 2 347 332 317 319 318 309 302 292 287 283
192 186 174 167 167 166 166 166 182 191 193 204 221 287 272 264 287 299 301 310 313 320 332 353 360 4 7 7 8 354 343 336 319 302 299 298 299 301
161 147 150 160 157 161 170 195 190 185 201 215 255 285 289 298 304 294 295 307 302 301 317 341 348 357 359 357 357 2 347 342 329 315 300 291 294 299
157 159 163 160 160 186 171 170 184 201 216 236 253 281 302 309 294 280 302 309 319 323 317 327 337 338 346 347 346 356 360 347 334 320 314 306 298 295
146 147 159 180 178 168 168 189 234 247 241 244 260 293 304 294 268 288 295 303 310 323 326 318 329 328 333 339 346 351 357 358 348 325 317 306 308 307
140 142 142 155 184 189 209 254 260 242 241 259 291 305 302 281 269 280 287 298 298 310 325 328 324 327 331 331 340 348 354 358 0 347 341 340 325 297
128 135 173 204 215 242 257 230 326 297 276 290 296 276 276 272 278 290 301 300 299 305 308 323 327 330 339 336 338 348 354 1 1 1 4 355 317 294